Meteo Giornale » Osservazioni meteo Gran Bretagna » Linton-On-Ouse

ore: 14:50 - Osservazioni Meteo Linton-On-Ouse
Lat. 54° 3' N Lon. 1° 15' W Alt. 16 metri s.l.m.

coperto_pioggia Europe/London

11 °C

Pioggia Debole

Temp. 24 Ore

9 °C

15 °C

Sud-Ovest

11.1 Km/h

Dew point 8 °C

Umidità 81 %

Visibilità  7 Km

Il sole sorge alle ore 05:40

Il sole tramonta alle ore 20:26

Data e Ora Cielo e Fenomeni T °C DP °C Um. % Pres. hPa Vis. km Vento km/h
Oggi h: 14:50 coperto_pioggia Pioggia Debole 11 8 81 1009 7 SO 11.1
Oggi h: 13:50 coperto_pioggia Pioggia Debole 12 7 71 1010 10 O 16.7
Oggi h: 12:50 coperto Coperto 13 5 58 1010 10 SO 16.7
Oggi h: 11:50 molto_nuvoloso Molto Nuvoloso 13 5 58 1011 10 O 24
Oggi h: 10:50 molto_nuvoloso Molto Nuvoloso 12 5 62 1011 10 O 22.2
Oggi h: 09:50 molto_nuvoloso Molto Nuvoloso 11 6 71 1011 10 SO 14.8
Oggi h: 08:50 molto_nuvoloso Molto Nuvoloso 10 6 76 1011 10 O/SO 13
Oggi h: 07:50 molto_nuvoloso Molto Nuvoloso 10 5 71 1011 10 O 18.5
Oggi h: 06:50 molto_nuvoloso Molto Nuvoloso 10 6 76 1010 10 O 16.7
Oggi h: 05:50 molto_nuvoloso Molto Nuvoloso 10 5 71 1010 10 O 22.2
Oggi h: 04:50 molto_nuvoloso Molto Nuvoloso 10 5 71 1010 10 O 14.8
Oggi h: 03:50 sereno Sereno 9 5 75 1009 10 O/SO 7.4
Oggi h: 02:50 sereno Sereno 9 5 75 1009 10 N 5.5
Oggi h: 01:50 nuvoloso Nuvoloso 9 5 75 1009 10 O/NO 11.1
Oggi h: 00:50 sereno Sereno 10 6 76 1009 10 O/NO 20.3
Ieri h: 23:50 nuvoloso Nuvoloso 11 7 76 1008 10 O 38.8
Ieri h: 22:50 coperto Coperto 12 8 76 1008 10 O 29.6
Ieri h: 21:50 coperto Coperto 12 9 81 1008 10 SO 13
Ieri h: 20:50 coperto Coperto 12 8 76 1008 10 SO 22.2
Ieri h: 19:50 coperto Coperto 12 8 76 1009 10 SO 22.2
Ieri h: 19:16 coperto_pioggia Pioggia Debole 12 8 76 1009 10 SO 25.9
Ieri h: 18:50 coperto Coperto 13 7 66 1009 10 SO 29.6
Ieri h: 17:50 coperto_pioggia Pioggia Debole 13 6 62 1009 10 SO 31.5
Ieri h: 16:50 molto_nuvoloso Molto Nuvoloso 15 5 51 1010 10 SO 27.8
Ieri h: 15:50 molto_nuvoloso Molto Nuvoloso 15 4 47 1010 10 SO 27.8